Bad Axe, MI

3:46 PM EST on February 13, 2016 (GMT -0500)
Huron County Memorial

Weather History for KBAX - October, 2013

Change the Weather History Date:

Wednesday, October 2, 2013

  Actual Average (KP58) Record (KP58)
Temperature  
Mean Temperature 58 °F -  
Max Temperature 73 °F 63 °F 81 °F (2005)
Min Temperature 44 °F 47 °F 36 °F (2003)
Degree Days  
Heating Degree Days 6    
Growing Degree Days 8 (Base 50)    
Moisture  
Dew Point 48 °F    
Average Humidity 67    
Maximum Humidity 100    
Minimum Humidity 23    
Precipitation  
Precipitation 0.00 in - - ()
Sea Level Pressure  
Sea Level Pressure 30.03 in    
Wind  
Wind Speed 7 mph (West)    
Max Wind Speed 13 mph    
Max Gust Speed 18 mph    
Visibility 9 miles    
Events      
Averages and records for this station are not official NWS values.
T = Trace of Precipitation, MM = Missing Value Source: NWS Daily Summary

Daily Weather History Graph

Daily Weather History Graph

Search for Another Location

Airport or City:

Trip Planner

Search our weather history database for the weather conditions in past years. The results will help you decide how hot, cold, wet, or windy it might be!

Date:

Astronomy

Oct. 02, 2013 Rise Set
Actual Time 7:30 AM EDT 7:10 PM EDT
Civil Twilight 7:02 AM EDT 7:39 PM EDT
Nautical Twilight 6:28 AM EDT 8:12 PM EDT
Astronomical Twilight 5:55 AM EDT 8:46 PM EDT
Moon 4:59 AM EDT (10/2) 5:48 PM EDT (10/2)
Length of Visible Light 12h 36m
Length of Day
11h 39m
Waning Crescent, 6% of the Moon is Illuminated
Oct 2
Waning Crescent
Oct 4
New
Oct 11
First Quarter
Oct 18
Full
Oct 26
Last Quarter

Hourly Weather History & Observations

Time (EDT) Temp. Dew Point Humidity Pressure Visibility Wind Dir Wind Speed Gust Speed Precip Events Conditions
12:17 AM 66.2 °F 60.8 °F 83% 29.90 in 10.0 mi WSW 9.2 mph 16.1 mph N/A   Clear
12:37 AM 66.2 °F 60.8 °F 83% 29.90 in 10.0 mi WSW 10.4 mph 17.3 mph N/A   Clear
12:57 AM 66.2 °F 60.8 °F 83% 29.90 in 10.0 mi WSW 12.7 mph 17.3 mph N/A   Clear
1:17 AM 66.2 °F 60.8 °F 83% 29.90 in 10.0 mi WSW 11.5 mph 18.4 mph N/A   Clear
1:37 AM 64.4 °F 60.8 °F 88% 29.91 in 10.0 mi West 10.4 mph - N/A   Clear
1:57 AM 64.4 °F 60.8 °F 88% 29.91 in 10.0 mi WSW 10.4 mph - N/A   Clear
2:17 AM 64.4 °F 60.8 °F 88% 29.92 in 10.0 mi WSW 10.4 mph - N/A   Clear
2:38 AM 64.4 °F 60.8 °F 88% 29.93 in 10.0 mi West 8.1 mph - N/A   Clear
3:01 AM 62.6 °F 60.8 °F 94% 29.93 in 10.0 mi West 9.2 mph - N/A   Clear
3:16 AM 62.6 °F 60.8 °F 94% 29.93 in 10.0 mi West 8.1 mph 17.3 mph N/A   Clear
3:37 AM 62.6 °F 60.8 °F 94% 29.93 in 7.0 mi West 8.1 mph - N/A   Clear
3:57 AM 62.6 °F 59.0 °F 88% 29.94 in 7.0 mi West 6.9 mph - N/A   Clear
4:17 AM 60.8 °F 59.0 °F 94% 29.94 in 7.0 mi West 5.8 mph - N/A   Clear
4:36 AM 60.8 °F 59.0 °F 94% 29.95 in 7.0 mi West 4.6 mph - N/A   Clear
4:57 AM 60.8 °F 59.0 °F 94% 29.96 in 5.0 mi West 4.6 mph - N/A   Clear
5:17 AM 59.0 °F 59.0 °F 100% 29.96 in 5.0 mi West 5.8 mph - N/A   Clear
5:42 AM 59.0 °F 57.2 °F 94% 29.97 in 5.0 mi West 3.5 mph - N/A   Clear
5:56 AM 59.0 °F 57.2 °F 94% 29.97 in 4.0 mi West 3.5 mph - N/A   Clear
6:16 AM 57.2 °F 57.2 °F 100% 29.98 in 4.0 mi West 3.5 mph - N/A   Clear
6:37 AM 55.4 °F 55.4 °F 100% 29.99 in 3.0 mi West 4.6 mph - N/A   Clear
6:57 AM 55.4 °F 55.4 °F 100% 30.00 in 5.0 mi WNW 3.5 mph - N/A   Clear
7:17 AM 55.4 °F 53.6 °F 94% 30.00 in 7.0 mi WNW 4.6 mph - N/A   Clear
7:37 AM 55.4 °F 53.6 °F 94% 30.01 in 10.0 mi WNW 4.6 mph - N/A   Clear
7:57 AM 53.6 °F 51.8 °F 94% 30.03 in 7.0 mi Calm Calm - N/A   Clear
8:17 AM 53.6 °F 51.8 °F 94% 30.04 in 7.0 mi Calm Calm - N/A   Clear
8:41 AM 57.2 °F 55.4 °F 94% 30.05 in 10.0 mi Calm Calm - N/A   Clear
8:58 AM 59.0 °F 57.2 °F 94% 30.05 in 10.0 mi Calm Calm - N/A   Clear
9:19 AM 60.8 °F 57.2 °F 88% 30.06 in 10.0 mi West 3.5 mph - N/A   Clear
9:38 AM 62.6 °F 55.4 °F 77% 30.07 in 10.0 mi WNW 5.8 mph - N/A   Clear
9:57 AM 64.4 °F 55.4 °F 73% 30.07 in 10.0 mi Calm Calm - N/A   Clear
10:17 AM 64.4 °F 53.6 °F 68% 30.08 in 10.0 mi NW 6.9 mph - N/A   Clear
10:37 AM 66.2 °F 51.8 °F 60% 30.08 in 10.0 mi NW 5.8 mph - N/A   Clear
10:57 AM 68.0 °F 50.0 °F 52% 30.08 in 10.0 mi NNW 6.9 mph - N/A   Clear
11:17 AM 68.0 °F 48.2 °F 49% 30.08 in 10.0 mi North 6.9 mph - N/A   Clear
11:37 AM 68.0 °F 46.4 °F 46% 30.09 in 10.0 mi NW 9.2 mph - N/A   Clear
11:57 AM 69.8 °F 44.6 °F 40% 30.09 in 10.0 mi NNW 9.2 mph - N/A   Clear
12:17 PM 69.8 °F 41.0 °F 35% 30.09 in 10.0 mi NW 6.9 mph - N/A   Clear
12:38 PM 71.6 °F 39.2 °F 31% 30.09 in 10.0 mi West 6.9 mph - N/A   Clear
12:57 PM 71.6 °F 37.4 °F 29% 30.09 in 10.0 mi NW 6.9 mph - N/A   Clear
1:17 PM 71.6 °F 37.4 °F 29% 30.09 in 10.0 mi NNW 8.1 mph - N/A   Clear
1:37 PM 71.6 °F 37.4 °F 29% 30.08 in 10.0 mi NNW 4.6 mph - N/A   Clear
1:58 PM 73.4 °F 35.6 °F 25% 30.08 in 10.0 mi West 9.2 mph - N/A   Clear
2:18 PM 73.4 °F 35.6 °F 25% 30.07 in 10.0 mi WNW 8.1 mph - N/A   Clear
2:37 PM 73.4 °F 37.4 °F 27% 30.07 in 10.0 mi NW 10.4 mph - N/A   Clear
3:01 PM 73.4 °F 33.8 °F 23% 30.07 in 10.0 mi West 9.2 mph - N/A   Clear
3:18 PM 73.4 °F 35.6 °F 25% 30.07 in 10.0 mi WNW 8.1 mph - N/A   Clear
3:38 PM 73.4 °F 35.6 °F 25% 30.07 in 10.0 mi WNW 4.6 mph - N/A   Clear
3:58 PM 73.4 °F 35.6 °F 25% 30.08 in 10.0 mi WSW 4.6 mph - N/A   Clear
4:17 PM 73.4 °F 33.8 °F 23% 30.07 in 10.0 mi West 6.9 mph - N/A   Clear
4:37 PM 73.4 °F 33.8 °F 23% 30.07 in 10.0 mi West 5.8 mph - N/A   Clear
4:58 PM 73.4 °F 35.6 °F 25% 30.07 in 10.0 mi West 6.9 mph - N/A   Clear
5:17 PM 73.4 °F 35.6 °F 25% 30.06 in 10.0 mi West 5.8 mph - N/A   Clear
5:42 PM 71.6 °F 37.4 °F 29% 30.06 in 10.0 mi WNW 3.5 mph - N/A   Clear
5:59 PM 71.6 °F 37.4 °F 29% 30.07 in 10.0 mi West 5.8 mph - N/A   Clear
6:20 PM 69.8 °F 39.2 °F 33% 30.07 in 10.0 mi Calm Calm - N/A   Clear
6:39 PM 68.0 °F 42.8 °F 40% 30.07 in 10.0 mi Calm Calm - N/A   Clear
6:59 PM 64.4 °F 46.4 °F 52% 30.07 in 10.0 mi Calm Calm - N/A   Clear
7:18 PM 59.0 °F 48.2 °F 67% 30.07 in 10.0 mi Calm Calm - N/A   Clear
7:39 PM 57.2 °F 48.2 °F 72% 30.07 in 7.0 mi Calm Calm - N/A   Clear
8:07 PM 53.6 °F 48.2 °F 82% 30.07 in 10.0 mi Calm Calm - N/A   Clear
8:19 PM 51.8 °F 46.4 °F 82% 30.07 in 10.0 mi South 3.5 mph - N/A   Clear
8:38 PM 50.0 °F 44.6 °F 82% 30.07 in 10.0 mi Calm Calm - N/A   Clear
8:59 PM 53.6 °F 44.6 °F 72% 30.08 in 10.0 mi South 5.8 mph - N/A   Clear
9:25 PM 51.8 °F 44.6 °F 76% 30.08 in 10.0 mi SSE 3.5 mph - N/A   Clear
9:39 PM 50.0 °F 44.6 °F 82% 30.09 in 10.0 mi SSE 3.5 mph - N/A   Clear
10:03 PM 50.0 °F 44.6 °F 82% 30.09 in 10.0 mi Calm Calm - N/A   Clear
10:31 PM 48.2 °F 42.8 °F 82% 30.09 in 10.0 mi Calm Calm - N/A   Clear
10:45 PM 48.2 °F 42.8 °F 82% 30.09 in 10.0 mi Calm Calm - N/A   Clear
11:03 PM 48.2 °F 42.8 °F 82% 30.09 in 10.0 mi Calm Calm - N/A   Clear
11:17 PM 44.6 °F 41.0 °F 87% 30.09 in 10.0 mi Calm Calm - N/A   Clear
11:40 PM 46.4 °F 42.8 °F 87% 30.09 in 10.0 mi Calm Calm - N/A   Clear